Regional Weather Roundup
Issued by NWS

Home | Current Version | Previous Version | Text Only | Print | Product List | Glossary Off
Versions: 1 2 3 4 5 6 7 8 9 10 11 12 13 14 15 16 17 18 19 20 21 22 23 24 25 26 27 28 29 30 31 32 33 34 35 36 37 38 39 40 41 42 43 44 45 46 47 48 49 50

000
ASUS45 KABQ 171110
RWRNM
NEW MEXICO REGIONAL WEATHER ROUNDUP
NATIONAL WEATHER SERVICE ALBUQUERQUE NM
400 AM MST WED JAN 17 2018

NOTE: "FAIR" MEANS FEW OR NO CLOUDS BELOW 12,000 FEET AGL WITH NO
       SIGNIFICANT WEATHER OR OBSTRUCTIONS TO VISION.

      THIS PRODUCT IS RELEASED AS TWO VERSIONS.  ONE VERSION NEAR
      THE TOP OF THE HOUR CONTAINING PRELIMINARY DATA FROM ALBUQUERQUE
      AND OTHER STATIONS.  A FINAL VERSION WITH ADDITIONAL DATA IS
      ISSUED ABOUT 10 MINUTES AFTER THE HOUR.

NMZ501-503-504-510>518-171200-
NORTHWEST PLATEAU/NORTHCENTRAL MOUNTAINS

CITY           SKY/WX    TMP DP  RH WIND       PRES   REMARKS
FARMINGTON     FAIR      16  13  88 E6        30.35S WCI   7
LOS ALAMOS     FAIR      22  15  75 CALM      30.34S
SANTA FE       FAIR      15  11  83 N10       30.34F WCI   2
TAOS           FAIR       6   3  87 N5        30.37F WCI  -3
ANGEL FIRE     FAIR      -2  -5  84 CALM      30.33S

$$
NMZ402-403-502-505>509-171200-
WESTCENTRAL MOUNTAINS/SOUTHWEST MOUNTAINS

CITY           SKY/WX    TMP DP  RH WIND       PRES   REMARKS
GALLUP         FAIR      23  15  71 NE7       30.32F WCI  15
GRANTS         FAIR      10   6  82 CALM      30.36F
SILVER CITY    FAIR      15   7  72 CALM      30.36F

$$
NMZ407-409-411-412-171200-
SOUTHERN DESERTS

CITY           SKY/WX    TMP DP  RH WIND       PRES   REMARKS
DEMING         FAIR      21   5  50 NE7       30.41F WCI  12
LAS CRUCES     FAIR      17   3  54 CALM      30.42F
HOLLOMAN AFB   FAIR      13  -4  46 N5        30.48F WCI   5
ALAMOGORDO     FAIR      18   0  45 N6        30.46S WCI   9
T OR C         FAIR      23   8  52 W6        30.39F WCI  16

$$
NMZ519>523-171200-
CENTRAL VALLEYS/CENTRAL HIGHLANDS

CITY           SKY/WX    TMP DP  RH WIND       PRES   REMARKS
ALBUQUERQUE    FAIR      20  13  74 CALM      30.39S
MORIARTY ARPT  FAIR       3  -3  75 CALM      30.36S
CLINES CORNERS FAIR      15   9  76 W17       30.28F WCI  -1
BELEN          FAIR      13   7  77 CALM      30.39F
SOCORRO        FAIR      17   6  63 SW5       30.41F WCI  10

$$
NMZ524>526-539-540-171200-
SOUTHCENTRAL MOUNTAINS

CITY           SKY/WX    TMP DP  RH WIND       PRES   REMARKS
RUIDOSO        FAIR      18   9  68 W7        30.34F WCI   8

$$
NMZ527>531-171200-
NORTHEAST HIGHLANDS/NORTHEAST PLAINS

CITY           SKY/WX    TMP DP  RH WIND       PRES   REMARKS
LAS VEGAS      FAIR      15  11  83 CALM      30.25F
RATON          FAIR       8   5  87 E8        30.26F WCI  -4
CLAYTON        FAIR      19  14  81 W15       30.24F WCI   5

$$
NMZ532>537-171200-
EASTCENTRAL PLAINS

CITY           SKY/WX    TMP DP  RH WIND       PRES   REMARKS
SANTA ROSA     FAIR      12   2  65 SE8       30.36F WCI   0
TUCUMCARI      FAIR      17   4  56 SW9       30.36F WCI   6
CANNON AFB     FAIR      15   1  52 W9        30.42F WCI   4
CLOVIS AIRPORT FAIR       5  -1  76 W7        30.42F WCI  -7

$$
NMZ028-029-538-171200-
SOUTHEAST PLAINS

CITY           SKY/WX    TMP DP  RH WIND       PRES   REMARKS
ROSWELL        FAIR      10  -1  61 S5        30.45F WCI   2
ARTESIA        FAIR      12  -6  44 CALM      30.48F
CARLSBAD       FAIR      20   0  41 S9        30.49F WCI   9
HOBBS          CLOUDY    16  -2  45 SW3       30.49F


$$




USA.gov is the U.S. government's official web portal to all federal, state and local government web resources and services.